Regional Weather Roundup
Issued by NWS

Home | Current Version | Previous Version | Text Only | Print | Product List | Glossary Off
Versions: 1 2 3 4 5 6 7 8 9 10 11 12 13 14 15 16 17 18 19 20 21 22 23 24 25 26 27 28 29 30 31 32 33 34 35 36 37 38 39 40 41 42 43 44 45 46 47 48 49 50

000
ASUS43 KFSD 290510
RWRSD

WEATHER ROUNDUP FOR SOUTH DAKOTA
NATIONAL WEATHER SERVICE SIOUX FALLS SD
1200 AM CDT FRI MAY 29 2015

NOTE: "FAIR" INDICATES FEW OR NO CLOUDS BELOW 12,000 FEET WITH NO
SIGNIFICANT WEATHER AND/OR OBSTRUCTIONS TO VISIBILITY.


SDZ001>005-009-010-012>017-290600-
NORTHWEST AND NORTH CENTRAL SOUTH DAKOTA

CITY           SKY/WX    TMP DP  RH WIND       PRES   REMARKS
BUFFALO          N/A     56  54  93 W9        29.97R
FAITH            N/A     58  53  84 N9        29.96R
MOBRIDGE       CLOUDY    64  62  93 N7        29.86S
$$

SDZ012>016-024>037-041>051-057-063-072>074-290600-
SOUTHWEST AND SOUTH CENTRAL SOUTH DAKOTA

CITY           SKY/WX    TMP DP  RH WIND       PRES   REMARKS
RAPID CTY ARPT CLOUDY    56  49  77 NW13      30.00R
PIERRE         CLOUDY    60  58  92 W8        29.88R
CUSTER         MOCLDY    52  43  71 VRB7      30.09R
ELLSWORTH AFB  CLOUDY    58  50  75 NW15      29.99R
PHILIP         CLOUDY    60  57  89 W7        29.93S
PINE RIDGE     CLOUDY    54  51  90 NW3       30.01S
SPEARFISH      CLOUDY    55  50  82 NW10      30.08R
WINNER         FAIR      62  56  80 W10       29.89S
$$

SDZ004>011-016>023-039-040-290600-
NORTHEAST SOUTH DAKOTA

CITY           SKY/WX    TMP DP  RH WIND       PRES   REMARKS
ABERDEEN       CLOUDY    63  60  90 E8        29.84F
WATERTOWN      CLOUDY    67  59  75 NW10      29.89R
BROOKINGS      MOCLDY    64  57  77 S10       29.89S
SISSETON         N/A     61  61 100 E9        29.86F
$$

SDZ017-020-022-023-036>040-048>070-290600-
SOUTHEAST SOUTH DAKOTA

CITY           SKY/WX    TMP DP  RH WIND       PRES   REMARKS
SIOUX FALLS    PTCLDY    66  62  87 S10       29.88F
HURON            N/A    N/A N/A N/A MISG      29.84F
CHAMBERLAIN    CLOUDY    59  58  97 CALM      29.86F
MITCHELL       CLOUDY    70  62  76 SW3       29.86R
YANKTON        MOCLDY    68  63  83 S12       29.86S
$$

ABBREVIATIONS USED IN REMARKS
   TC - TEMPERATURE IN CELSIUS
  WCI - WIND CHILL INDEX
   HX - HEAT INDEX
  VSB - VISIBILITY




USA.gov is the U.S. government's official web portal to all federal, state and local government web resources and services.